CUAVA-1

Last updated on Wed Aug 31 2022 00:02:06 GMT+0000 (Coordinated Universal Time)

1 49275U 98067SU 22242.48134796 .24583722 12476-4 25807-3 0 9993 2 49275 51.6069 289.8805 0011981 165.6488 331.0164 16.49780575 51426

Satellite not in orbit